SL-12 R/B(2), 23401

Orbit data source: Space-Track

SL-12 R/B(2), 23401 is space debris in MEO originally from a launch on Sun, 20 Nov 1994 UTC launched from the Tyuratam Missile And Space Complex (TTMTR). Debris objects in space refer to the collection of defunct objects orbiting the Earth. Examples of debris include non-operational satellites, rocket bodies, and fragments generated from explosions, collisions, or faulty payload assembly.

Loading next visibility...
Identifier
23401, 1994-076F
Orbit
MEO
Country
Flag of CISCIS
Related business
Manufacturer
RKKE
Mission
Spacecraft
Bus & Motor
BLOK DM, Unknown motor
Mass
2,440 kg wet, 2,440 kg dry
Launch date (UTC)
1994-11-20 (32 years ago)
Launch vehicle
Unknown
Launch site
Tyuratam Missile And Space Complex (TTMTR)
Object type
Payload
Rocket body
Debris
Shape & HBR
Cyl, 3.1 m
Radar Cross Section
23.597 m², Large (>1 m²)

Expand to show TLE details & history
Last TLE update: 3 days ago

TLE from 3 days ago
0 SL-12 R/B(2)
1 23401U 94076F   26170.59830447 -.00000041  00000-0  00000-0 0  9998
2 23401  64.8797  66.9433 0011473 291.4796 249.4433  2.13556109246269
Epoch: 2026-06-19T14:21Z
TLE epoch observation values (Epoch: 2026-06-19T14:21:33.506Z)
Latitude
-0.74008°
Longitude
124.08855°
Altitude
19,104.644 km
Speed
3.954 km/s
True Right ascension
16h 29m 12s
True Declination
0° 44' 20"
Sunlit
Object was in daylight at epoch
Visualization orbit readout
Latitude
Unknown
Longitude
Unknown
Altitude
Unknown
Speed
Unknown
Apparent Right ascension
Unknown
Apparent Declination
Unknown
Sunlit
N/A
Visualization observer readout
Local Sidereal Time
23:07:50
Azimuth
Unknown
Elevation
Unknown
Doppler factor
Unknown
Orbital elements
Apogee altitude
19,122.556 km
Perigee altitude
19,064.109 km
Semi-major axis
25,471.47 km
Eccentricity
0.00115
Inclination
64.8797°
RAAN
66.9433°
Arg. of periapsis
291.4796°
True anomaly
249.32026°
Mean anomaly
249.4433°
Eccentric anomaly
249.38178°
Mean motion
0.5339 °/min
Orbital period
674.28 mins
BSTAR
0
Loading maneuver chart data...
Computing Atmospheric mass density...
Loading historical data...
Loading historical data...
Loading historical data...
Loading historical data...
Loading historical data...
Loading historical data...
Loading historical data...

Documentation

Showing up to 5 results
|